Location: Blue Sky Observatory
(43.1153°N, 70.9036°W)
Time: 21:45:30
(UTC-04:00)

Daily predictions for brighter satellites

Satellite Brightness Start Highest point End
(mag) Time Altitude Azimuth Time Altitude Azimuth Time Altitude Azimuth
NOSS 3-4 (A) 4.4 20:51:25 10° NW 20:58:21 59° WSW 21:05:42 10° SSE
NOSS 3-4 (C) 4.3 20:51:31 10° NW 20:58:27 60° WSW 21:05:49 10° SSE
Cosmos 1842 Rocket 4.4 20:54:41 10° NNW 20:58:57 53° W 21:03:11 10° S
Cosmos 2297 Rocket 2.9 20:53:33 10° SW 20:59:08 61° WNW 21:04:46 10° NNE
Cosmos 1605 Rocket 4.5 20:54:22 10° NNW 21:00:35 67° W 21:06:50 10° S
Cosmos 1356 Rocket 4.0 20:57:32 10° SSE 21:01:29 40° E 21:05:31 10° NNE
H-2A R/B 3.5 20:59:28 10° ESE 21:03:40 24° ENE 21:07:56 10° NNE
Cosmos 1741 Rocket 4.0 21:01:34 10° SSW 21:06:52 75° ESE 21:12:11 10° NNE
Cosmos 1818 3.7 21:03:05 10° NW 21:08:34 81° WSW 21:13:58 10° SSE
Cosmos 2263 Rocket 3.9 21:06:29 10° ESE 21:08:39 12° E 21:10:50 10° ENE
YAOGAN 6 2.7 21:05:51 10° SSE 21:09:28 87° WSW 21:13:11 10° NNW
Meteor 1-21 Rocket 4.4 21:05:30 10° S 21:11:00 54° E 21:16:25 10° NNE
ATLAS 5 CENTAUR R/B 1.9 21:07:22 10° SW 21:12:02 87° NW 21:17:09 10° NE
Cosmos 1726 3.4 21:11:23 10° NNE 21:14:29 25° ENE 21:17:27 11° SE
RESURS DK-1 3.3 21:13:21 10° N 21:17:15 37° ENE 21:20:58 11° SE
Cosmos 1300 4.2 21:14:40 10° NNE 21:17:45 22° ENE 21:20:36 11° SE
Cosmos 1076 Rocket 3.5 21:15:26 10° S 21:19:46 68° E 21:24:07 10° NNE
Cosmos 1802 Rocket 4.1 21:14:21 10° N 21:20:26 61° E 21:26:30 10° SSE
Cosmos 1408 Rocket 3.9 21:19:03 10° SSE 21:23:08 45° E 21:27:16 10° NNE
Cosmos 2237 Rocket 4.3 21:22:45 10° NW 21:27:00 22° W 21:31:14 10° SSW
ERBS 3.6 21:27:03 10° NNW 21:30:10 33° NE 21:33:11 11° E
Cosmos 2221 3.2 21:28:33 10° NNW 21:32:51 55° W 21:37:08 10° S
Cosmos 1340 Rocket 4.5 21:29:54 10° SW 21:33:38 36° WNW 21:37:26 10° N
CZ-4B DEB 4.5 21:32:24 10° SSW 21:35:01 28° W 21:37:38 10° NW
Cosmos 1603 3.8 21:30:04 10° NNW 21:35:42 66° ENE 21:40:30 14° SE
Meteor 1-29 4.5 21:34:36 10° N 21:37:50 39° WNW 21:41:04 10° SW
Tiangong 1 0.6 21:36:58 10° W 21:39:47 86° S 21:42:16 12° E
Cosmos 1814 Rocket 4.4 21:35:19 10° N 21:40:33 51° ENE 21:44:41 16° SE
Cosmos 371 Rocket 3.7 21:38:53 10° N 21:43:35 49° ENE 21:47:08 17° SE
Cosmos 1674 3.4 21:40:47 10° SSW 21:44:29 55° W 21:48:11 10° N
MetOp-A 4.2 21:40:29 10° SSE 21:45:50 80° WSW 21:51:14 10° NNW
Cosmos 2016 Rocket 4.0 21:40:46 10° N 21:47:05 81° E 21:52:56 12° S
ARGOS 3.2 21:42:43 12° SSE 21:47:46 83° ENE 21:53:12 10° NNW
Cosmos 841 Rocket 4.3 21:45:17 10° N 21:50:11 38° ENE 21:53:48 17° SE
CZ-3B R/B 4.2 21:47:24 10° SW 21:50:36 83° SE 22:02:23 10° NE
Cosmos 1943 3.8 21:45:23 10° NNW 21:50:48 45° ENE 21:54:57 17° SE
Cosmos 1455 4.4 21:49:05 10° NE 21:50:57 13° ENE 21:52:33 11° E
SPOT 5 2.9 21:47:02 14° SSE 21:51:13 82° ENE 21:56:22 10° NNW
Lacrosse 5 1.9 21:46:29 10° NW 21:51:35 89° WSW 21:55:19 18° SE
Cosmos 1763 Rocket 3.9 21:46:58 10° N 21:51:56 49° ENE 21:55:27 18° SE
Cosmos 1908 4.4 21:48:24 10° NNW 21:52:03 40° W 21:55:39 10° SSW
SL-16 R/B 3.6 21:47:11 10° NW 21:52:13 33° WSW 21:57:13 10° SSW
SPOT 1/Viking Rocket 3.6 21:54:30 17° SSE 21:58:28 71° ENE 22:03:37 10° N
Cosmos 1766 Rocket 3.9 21:56:12 10° SSW 22:00:29 65° W 22:04:50 10° N
Cosmos 1242 Rocket 4.3 22:00:12 10° NNW 22:03:29 29° W 22:06:43 10° SSW
Abrixas rocket 2.2 22:00:59 10° WNW 22:04:14 74° NNE 22:06:04 24° ESE
Cosmos 1328 Rocket 3.5 22:00:39 10° N 22:05:00 79° E 22:07:53 21° SSE
USA 245 3.7 22:07:27 18° S 22:09:51 57° W 22:14:03 10° NNW
Cosmos 1515 Rocket 3.6 22:06:37 10° N 22:10:56 66° E 22:13:23 25° SSE
Cosmos 2233 Rocket 4.2 22:05:19 10° N 22:11:25 55° ENE 22:15:24 22° SSE
Cosmos 1151 Rocket 3.4 22:07:11 10° N 22:11:29 51° E 22:13:43 25° SE
Landsat 7 3.9 22:08:35 22° SSE 22:11:34 63° ENE 22:16:16 10° N
IGS 5A 4.1 22:11:57 24° SE 22:13:58 41° ENE 22:17:53 10° N
USA 234 3.2 22:08:41 10° NE 22:15:15 73° SE 22:21:46 10° SW
H-2A R/B 2.9 22:13:53 22° ESE 22:15:57 36° ENE 22:19:50 10° N
Cosmos 1743 Rocket 3.4 22:13:15 17° S 22:16:33 85° E 22:20:54 10° N
Cosmos 2228 Rocket 3.2 22:14:31 10° N 22:19:08 80° W 22:22:04 22° S
Cosmos 1703 3.8 22:22:24 31° SE 22:23:42 41° E 22:27:29 10° NNE
SL-08 RB Rocket 4.4 22:21:53 17° S 22:25:14 50° W 22:29:44 10° NNW
Terra 2.0 22:24:01 27° SE 22:26:29 62° ENE 22:31:12 10° N
Meteor 1-11 4.3 22:23:46 18° S 22:28:07 74° E 22:33:55 10° NNE
H-2A ROCKET BODY 4.0 22:29:17 10° SSW 22:33:50 26° SE 22:47:11 10° E
Cosmos 1503 Rocket 4.2 22:32:18 27° SSE 22:34:45 49° ESE 22:39:44 10° NNE
Meteor 1-27 4.3 22:36:38 10° NNW 22:42:29 84° W 22:45:45 27° S
H-2A R/B 2.8 22:39:05 19° SSW 22:42:44 49° W 22:48:01 10° NNW
Cosmos 304 Rocket 3.9 22:40:13 10° NNW 22:44:58 61° ENE 22:46:52 34° SE
Cosmos 1626 2.0 22:44:38 43° S 22:45:46 82° E 22:49:30 10° N
Cosmos 2058 2.9 22:44:53 30° SSW 22:46:54 83° W 22:51:08 10° N
Cosmos 1726 4.4 22:46:56 10° NW 22:49:38 20° W 22:52:04 11° SW
CZ-4B R/B 3.9 22:44:39 10° NNE 22:49:44 46° E 22:51:29 34° SSE
Cosmos 540 Rocket 3.6 22:46:22 10° NNW 22:51:30 62° ENE 22:53:35 34° SE
Cosmos 2263 Rocket 2.1 22:46:57 15° SSW 22:51:42 89° WNW 22:57:20 10° NNE
RESURS DK-1 4.4 22:51:58 10° WNW 22:55:03 20° WSW 22:56:54 15° SW
Spot 4 4.0 22:55:05 37° SE 22:56:55 65° ENE 23:01:45 10° N
Cosmos 2285 Rocket 4.0 22:52:12 10° NNW 22:58:36 82° ENE 23:01:42 33° SSE
COSMOS 2406 4.5 22:54:42 10° N 22:59:44 31° NE 23:02:50 19° ESE
Sich 1 3.7 22:59:55 34° ESE 23:00:24 35° E 23:04:18 10° NNE
ERBS 3.8 23:03:53 10° WNW 23:06:28 25° WSW 23:06:28 25° WSW
deb Chang Zheng 4 3.5 23:03:31 10° NNE 23:07:54 85° WNW 23:09:31 39° SSW
PSLV R/B 3.3 23:09:22 62° NW 23:09:22 62° NW 23:11:55 10° NNW
ALOS 2 4.3 23:10:54 19° E 23:12:11 21° ENE 23:15:31 10° NNE
DELTA 2 DEB (DPAF) 4.1 23:11:06 48° SE 23:12:16 74° ENE 23:16:44 10° N
Cosmos 1707 Rocket 3.7 23:08:27 10° N 23:12:55 65° E 23:13:54 49° SE
Cosmos 2151 4.3 23:11:00 18° SW 23:13:39 36° WNW 23:17:40 10° N
Tiangong 1 3.2 23:12:35 10° W 23:13:23 17° W 23:13:23 17° W
CZ-2C R/B 4.3 23:12:52 25° ESE 23:15:20 36° ENE 23:20:26 10° N
Cosmos 1354 Rocket 4.2 23:16:06 23° SW 23:19:23 67° WNW 23:24:37 10° NNE
Cosmos 1844 Rocket 3.2 23:24:43 36° ESE 23:25:26 38° ESE 23:30:33 10° NE
Cosmos 1455 2.9 23:23:13 10° NNW 23:26:56 45° W 23:27:33 41° WSW
CZ-4C R/B 2.3 23:28:14 46° SSE 23:29:11 51° ESE 23:34:53 10° NE
Cosmos 1666 Rocket 3.5 23:28:28 59° SSE 23:29:16 78° E 23:33:44 10° N
Cosmos 1464 Rocket 3.9 23:24:04 10° N 23:30:15 83° W 23:32:45 39° S
Cosmos 1933 4.4 23:29:47 10° N 23:33:32 33° ENE 23:33:50 33° E
Lacrosse 5 3.8 23:30:59 10° W 23:33:53 15° WSW 23:34:30 15° SW
Cosmos 1869 3.2 23:33:42 10° NNW 23:37:39 72° W 23:37:55 69° SW
Cosmos 1933 Rocket 4.4 23:38:43 35° E 23:38:48 35° E 23:42:46 10° NNE
Cosmos 1805 Rocket 4.1 23:39:13 38° SW 23:40:27 51° WNW 23:44:42 10° N
Cosmos 1633 Rocket 2.9 23:44:55 66° SSW 23:45:30 85° W 23:49:52 10° N
Cosmos 1315 Rocket 4.3 23:46:28 24° ENE 23:46:28 24° ENE 23:49:12 10° NE
CZ-4C R/B 4.0 23:46:43 46° SW 23:47:19 50° W 23:51:36 10° NNW
SL-24 R/B - RUBIN 2 4.1 23:43:51 10° NNW 23:49:24 65° NE 23:50:52 44° ESE
Cosmos 1400 Rocket 3.1 23:49:33 56° E 23:49:33 56° E 23:53:34 10° NNE
H-2A R/B 3.8 23:51:01 19° WSW 23:52:02 21° W 23:55:17 10° NW
SME Rocket 3.6 23:52:50 42° WSW 23:53:15 43° W 23:57:36 10° NNW
